[[{"header":{"parameterUnit":"m.s-1","parameterCategory":1,"la1":30.2991,"la2":30.254,"lo1":-89.0895,"lo2":-89.0444,"dy":0.0017,"dx":0.0017,"nx":28,"ny":28,"refTime":"2025-02-03T09:00:00:Z","depth":0,"parameterNumber":2,"parameterNumberName":"U-component_of_WINDS"},"data":[0,0,0,0,0,0,0,0,0,0,0,0,0,0,0,0,0,0,0,0,0,0,0,0,0,0,0,0,0,0,0,0,0,0,0,0,0,0,0,0,0,0,0,0,0,0,0,0,0,0,0,0,0,0,0,0,0,0,-0.9537,-0.9536,0,-0.9425,-0.9424,-0.9422,-0.9364,-0.9364,-0.9364,-0.9364,-0.9243,-0.924,-0.9237,0,0,0,0,0,0,0,0,0,0,0,0,0,-0.9694,-0.9692,-0.9537,-0.9536,-0.9534,-0.9425,-0.9424,-0.9422,-0.9364,-0.9364,-0.9364,-0.9364,-0.9244,-0.9241,-0.9237,0,0,0,0,0,0,0,0,0,0,0,0,0,-0.9608,-0.9691,-0.9537,-0.9492,-0.9487,-0.9425,-0.9423,-0.9422,-0.9364,-0.9364,-0.9364,-0.9364,-0.9246,-0.9241,-0.9237,-0.921,0,0,-0.9222,-0.922,0,0,0,0,0,0,0,0,-0.9613,-0.9603,-0.95,-0.9495,-0.9489,-0.9408,-0.9435,-0.935,-0.9364,-0.941,-0.9364,-0.9363,-0.9298,-0.9289,-0.9268,-0.9204,-0.9199,-0.9222,-0.9219,-0.9217,-0.9216,0,0,0,0,0,0,0,-0.9619,-0.9607,-0.9492,-0.9499,-0.9492,-0.9475,-0.9463,-0.9419,-0.9356,-0.9406,-0.9402,-0.939,-0.9295,-0.9273,-0.9265,-0.9197,-0.9222,-0.9218,-0.9215,-0.9213,-0.9102,-0.9102,0,0,0,0,0,0,-0.9633,-0.9612,-0.9496,-0.9489,-0.9552,-0.9473,-0.9459,-0.9434,-0.9356,-0.9344,-0.939,-0.9387,-0.9281,-0.927,-0.926,-0.9222,-0.9217,-0.9212,-0.921,-0.9103,-0.9102,-0.9102,0,0,0,0,0,0,-0.9637,-0.9624,-0.95,-0.9549,-0.9533,-0.947,-0.9443,-0.9432,-0.941,-0.9344,-0.9332,-0.9379,-0.928,-0.9267,-0.9222,-0.9217,-0.921,-0.9206,-0.9103,-0.9102,-0.9102,-0.9147,0,0,0,0,0,0,-0.9642,-0.9625,-0.9616,-0.955,-0.953,-0.9467,-0.9443,-0.943,-0.9403,-0.9398,-0.9331,-0.9319,-0.9279,-0.923,-0.9218,-0.9211,-0.9202,-0.9103,-0.9103,-0.9102,-0.9146,-0.9148,-0.9151,0,0,0,0,0,-0.9648,-0.9632,-0.9616,-0.9602,-0.9518,-0.9467,-0.9455,-0.9411,-0.9403,-0.9391,-0.9349,-0.9321,-0.922,-0.9226,-0.9212,-0.9203,-0.9103,-0.9103,-0.9102,-0.9144,-0.9148,-0.9151,0,0,0,0,0,0,-0.9698,-0.9623,-0.9604,-0.9567,-0.9524,-0.9457,-0.9442,-0.9416,-0.9373,-0.937,-0.9316,-0.9301,-0.9261,-0.9227,-0.9235,-0.9172,-0.9158,-0.9155,-0.9195,-0.9198,-0.92,-0.9209,-0.9199,0,0,0,0,0,-0.9705,-0.9672,-0.9607,-0.9581,-0.956,-0.9505,-0.9481,-0.9451,-0.9403,-0.9384,-0.9338,-0.9291,-0.9248,-0.9221,-0.9178,-0.914,-0.9124,-0.9127,-0.913,-0.9132,-0.913,-0.9105,-0.9106,-0.9101,-0.9101,-0.9101,0,0,-0.9719,-0.9674,-0.9656,-0.959,-0.9553,-0.9517,-0.949,-0.9454,-0.9426,-0.9378,-0.9333,-0.9298,-0.9241,-0.92,-0.9179,-0.917,-0.9127,-0.9132,-0.9134,-0.913,-0.9105,-0.9106,-0.9106,-0.9101,-0.9101,-0.9101,0,0,-0.9726,-0.9689,-0.9663,-0.9626,-0.9571,-0.9534,-0.9528,-0.9464,-0.9439,-0.9394,-0.9356,-0.9321,-0.925,-0.921,-0.9181,-0.9172,-0.9144,-0.9159,-0.9172,-0.9149,-0.9149,-0.9149,-0.9144,-0.9144,-0.9157,-0.9158,-0.9158,0,-0.975,-0.9697,-0.9652,-0.9618,-0.9589,-0.9544,-0.9516,-0.9482,-0.9415,-0.9395,-0.9386,-0.9294,-0.9253,-0.9201,-0.9199,-0.9177,-0.9166,-0.9167,-0.9153,-0.9153,-0.9152,-0.9147,-0.9145,-0.916,-0.9159,-0.9159,-0.9159,0,-0.9728,-0.9692,-0.9676,-0.9614,-0.9583,-0.9552,-0.95,-0.9474,-0.9446,-0.9409,-0.9362,-0.9311,-0.9257,-0.9242,-0.9214,-0.9185,-0.9182,-0.9164,-0.9149,-0.9155,-0.9149,-0.9147,-0.9163,-0.9162,-0.9161,-0.9161,0,0,-0.9764,-0.9677,-0.9672,-0.9642,-0.9577,-0.9547,-0.9513,-0.9461,-0.9439,-0.9393,-0.9362,-0.9301,-0.9285,-0.9251,-0.9218,-0.9198,-0.9192,-0.9182,-0.918,-0.9185,-0.9155,-0.9168,-0.9167,-0.9173,-0.9173,-0.9172,-0.9159,0,-0.9761,-0.97,-0.9657,-0.9611,-0.9576,-0.9532,-0.9502,-0.9458,-0.9422,-0.9385,-0.9344,-0.9302,-0.9284,-0.9263,-0.9242,-0.9197,-0.9185,-0.9198,-0.9141,-0.914,-0.9156,-0.9164,-0.9178,-0.9168,-0.9157,-0.9156,-0.9156,0,-0.9749,-0.9707,-0.9658,-0.9595,-0.9579,-0.9553,-0.9501,-0.9467,-0.9414,-0.939,-0.9353,-0.9318,-0.9278,-0.9267,-0.9209,-0.9219,-0.9193,-0.9167,-0.9166,-0.9158,-0.9148,-0.9155,-0.9164,-0.9162,-0.9152,-0.9152,-0.9153,0,-0.9779,-0.9709,-0.967,-0.9647,-0.9573,-0.9555,-0.9524,-0.9472,-0.9442,-0.9396,-0.9376,-0.9326,-0.9298,-0.9258,-0.921,-0.9207,-0.9156,-0.9142,-0.9133,-0.9134,-0.9124,-0.9125,-0.9127,-0.9109,-0.9109,-0.9109,-0.9109,0,-0.978,-0.9751,-0.9683,-0.9659,-0.9625,-0.9575,-0.9542,-0.9506,-0.946,-0.9426,-0.9385,-0.9354,-0.9294,-0.9255,-0.9217,-0.9173,-0.9161,-0.9138,-0.9128,-0.9142,-0.9144,-0.9123,-0.9122,-0.9108,-0.9108,-0.9108,-0.9109,0,-0.9807,-0.976,-0.9715,-0.9649,-0.9632,-0.961,-0.9552,-0.9526,-0.9488,-0.9446,-0.9433,-0.9373,-0.9325,-0.9273,-0.9207,-0.9182,-0.9139,-0.9126,-0.9158,-0.9152,-0.9145,-0.9146,-0.9133,-0.9129,-0.9115,-0.9115,-0.9115,0,-0.981,-0.9787,-0.9719,-0.9695,-0.9664,-0.9625,-0.9596,-0.9545,-0.9516,-0.9454,-0.9435,-0.9384,-0.934,-0.9265,-0.9214,-0.9162,-0.9147,-0.9146,-0.9138,-0.9152,-0.9145,-0.9147,-0.9143,-0.9148,-0.9148,-0.9149,-0.9149,0,-0.982,-0.9798,-0.9758,-0.9709,-0.9675,-0.9634,-0.9591,-0.9573,-0.9514,-0.9482,-0.9433,-0.94,-0.9332,-0.9282,-0.9224,-0.9188,-0.9158,-0.9152,-0.9146,-0.9159,-0.9178,-0.9167,-0.9163,-0.9152,-0.9152,-0.9151,-0.9151,-0.9151,-0.9834,-0.9811,-0.976,-0.9716,-0.9679,-0.9639,-0.9611,-0.957,-0.9529,-0.9472,-0.9444,-0.9394,-0.934,-0.926,-0.9225,-0.9184,-0.9175,-0.9168,-0.9166,-0.9165,-0.9168,-0.9186,-0.9174,-0.9173,-0.9173,-0.9173,-0.9173,0,-0.9841,-0.9806,-0.9766,-0.9708,-0.9673,-0.9649,-0.96,-0.9571,-0.9529,-0.9482,-0.9441,-0.9383,-0.9333,-0.9278,-0.9225,-0.9202,-0.9187,-0.919,-0.919,-0.9182,-0.918,-0.9189,-0.9203,-0.9203,-0.9203,-0.9203,-0.9203,-0.9203,-0.9841,-0.98,-0.9772,-0.9711,-0.9675,-0.9628,-0.9602,-0.9564,-0.9527,-0.9465,-0.9424,-0.9389,-0.9338,-0.928,-0.9233,-0.9217,-0.9199,-0.9206,-0.9186,-0.9185,-0.9183,-0.918,-0.9189,-0.9202,-0.9202,-0.9192,-0.9192,-0.9192]},{"header":{"parameterUnit":"m.s-1","parameterCategory":1,"la1":30.2991,"la2":30.254,"lo1":-89.0895,"lo2":-89.0444,"dy":0.0017,"dx":0.0017,"nx":28,"ny":28,"refTime":"2025-02-03T09:00:00:Z","depth":0,"parameterNumber":3,"parameterNumberName":"V-component_of_WINDS"},"data":[0,0,0,0,0,0,0,0,0,0,0,0,0,0,0,0,0,0,0,0,0,0,0,0,0,0,0,0,0,0,0,0,0,0,0,0,0,0,0,0,0,0,0,0,0,0,0,0,0,0,0,0,0,0,0,0,0,0,1.9155,1.9155,0,1.9153,1.9153,1.9153,1.9142,1.9142,1.9141,1.9141,1.9138,1.9138,1.9139,0,0,0,0,0,0,0,0,0,0,0,0,0,1.9148,1.9148,1.9155,1.9155,1.9155,1.9153,1.9153,1.9153,1.9142,1.9142,1.9141,1.9141,1.9138,1.9138,1.9139,0,0,0,0,0,0,0,0,0,0,0,0,0,1.9149,1.9148,1.9155,1.9149,1.9149,1.9153,1.9153,1.9153,1.9142,1.9142,1.9141,1.9141,1.9138,1.9138,1.9139,1.9148,0,0,1.9139,1.914,0,0,0,0,0,0,0,0,1.9149,1.9149,1.915,1.9149,1.9149,1.9147,1.915,1.9151,1.9142,1.9144,1.9141,1.9141,1.9142,1.9141,1.9142,1.9148,1.9148,1.9139,1.914,1.914,1.914,0,0,0,0,0,0,0,1.9149,1.9149,1.9154,1.915,1.9149,1.9146,1.9146,1.915,1.9145,1.9144,1.9143,1.9143,1.9141,1.9142,1.9142,1.9148,1.9139,1.914,1.914,1.914,1.9163,1.9163,0,0,0,0,0,0,1.915,1.9149,1.9154,1.9154,1.9148,1.9147,1.9147,1.9148,1.9145,1.9144,1.9144,1.9143,1.9142,1.9142,1.9142,1.9154,1.914,1.914,1.914,1.9162,1.9163,1.9163,0,0,0,0,0,0,1.915,1.915,1.9154,1.9152,1.9152,1.9147,1.9149,1.9148,1.9149,1.9145,1.9144,1.9145,1.9141,1.9141,1.9147,1.9153,1.914,1.914,1.9162,1.9162,1.9163,1.9177,0,0,0,0,0,0,1.915,1.915,1.9154,1.9152,1.9152,1.916,1.915,1.9149,1.915,1.9148,1.9146,1.9145,1.9141,1.9147,1.9147,1.9153,1.9141,1.9161,1.9162,1.9163,1.9176,1.9178,1.918,0,0,0,0,0,1.915,1.9158,1.9154,1.9155,1.9157,1.916,1.916,1.9155,1.915,1.9154,1.9151,1.9145,1.9152,1.9147,1.9148,1.9154,1.9161,1.9162,1.9163,1.9175,1.9178,1.918,0,0,0,0,0,0,1.916,1.9157,1.9154,1.9161,1.9161,1.9158,1.9163,1.9158,1.9159,1.9158,1.9152,1.9151,1.9158,1.9156,1.9151,1.9164,1.9156,1.9157,1.9165,1.9167,1.9169,1.917,1.9141,0,0,0,0,0,1.9164,1.9167,1.9164,1.9171,1.9171,1.9167,1.9168,1.9165,1.9164,1.9164,1.9162,1.9161,1.9163,1.9165,1.9167,1.9175,1.9175,1.918,1.9182,1.9184,1.9185,1.919,1.9193,1.9167,1.9167,1.9167,0,0,1.9171,1.9169,1.9172,1.9173,1.9173,1.9177,1.9167,1.9171,1.9174,1.9164,1.917,1.9168,1.9167,1.9175,1.9178,1.9174,1.9192,1.9185,1.9186,1.9187,1.9192,1.9194,1.9196,1.9167,1.9167,1.9167,0,0,1.9185,1.9184,1.9191,1.9191,1.919,1.9187,1.9189,1.9187,1.9186,1.9191,1.9185,1.9187,1.9191,1.9191,1.9191,1.9207,1.9202,1.9207,1.9218,1.9223,1.9225,1.9227,1.9234,1.9236,1.9209,1.9209,1.9209,0,1.9194,1.92,1.9194,1.9199,1.92,1.9193,1.9199,1.9199,1.9199,1.92,1.9195,1.92,1.9199,1.9207,1.9211,1.9211,1.9213,1.9208,1.9225,1.9227,1.9229,1.9235,1.9237,1.9209,1.9209,1.9209,1.9209,0,1.9211,1.9215,1.922,1.9221,1.9222,1.9228,1.9224,1.9226,1.9222,1.922,1.9226,1.9224,1.9226,1.9227,1.9223,1.9235,1.9232,1.9227,1.9218,1.9232,1.9238,1.924,1.9211,1.921,1.921,1.921,0,0,1.9232,1.9231,1.9233,1.9234,1.9233,1.9236,1.9241,1.9243,1.9246,1.9246,1.9251,1.9254,1.9249,1.925,1.9246,1.925,1.9264,1.9244,1.9244,1.9249,1.9277,1.9282,1.9285,1.926,1.926,1.9261,1.9278,0,1.9247,1.9257,1.9253,1.9263,1.9267,1.926,1.9264,1.9264,1.9262,1.9265,1.9263,1.9266,1.9259,1.9259,1.9263,1.9261,1.927,1.926,1.9265,1.9265,1.9266,1.9288,1.9293,1.9309,1.928,1.928,1.928,0,1.9266,1.9268,1.9279,1.9278,1.928,1.9284,1.9286,1.9289,1.9289,1.9287,1.9288,1.9283,1.9289,1.928,1.9288,1.9281,1.9283,1.9282,1.9283,1.9284,1.9274,1.929,1.9314,1.9317,1.9284,1.9283,1.9283,0,1.9282,1.9287,1.9295,1.9295,1.9294,1.9298,1.9297,1.9297,1.9299,1.93,1.9302,1.9304,1.9305,1.9307,1.9303,1.9296,1.9311,1.9302,1.931,1.931,1.9314,1.9314,1.934,1.9314,1.9314,1.9314,1.9314,0,1.93,1.9307,1.9302,1.9307,1.9315,1.9309,1.9317,1.9316,1.9316,1.932,1.9314,1.9318,1.9312,1.9315,1.9312,1.9319,1.932,1.9319,1.9318,1.932,1.932,1.9322,1.9321,1.9314,1.9314,1.9314,1.9314,0,1.932,1.9317,1.9324,1.9323,1.9323,1.9329,1.9328,1.9332,1.9329,1.9335,1.9336,1.9332,1.9336,1.9332,1.9336,1.9333,1.9344,1.9341,1.9344,1.9344,1.9353,1.9352,1.9381,1.9385,1.9355,1.9356,1.9356,0,1.9332,1.9337,1.9337,1.9339,1.934,1.9344,1.9346,1.9341,1.9344,1.9344,1.9349,1.9352,1.9355,1.9361,1.9359,1.9362,1.9359,1.9369,1.936,1.9362,1.9361,1.9361,1.9362,1.9371,1.9372,1.9372,1.9372,0,1.9354,1.9352,1.9356,1.9359,1.9362,1.9364,1.9365,1.9368,1.9363,1.9366,1.937,1.9372,1.9376,1.938,1.9382,1.9382,1.9377,1.9375,1.9377,1.938,1.9382,1.9382,1.935,1.9375,1.9374,1.9374,1.9374,1.9374,1.9371,1.9376,1.9377,1.9381,1.9381,1.9383,1.9388,1.9386,1.939,1.9393,1.939,1.9395,1.9395,1.9398,1.9398,1.9402,1.9398,1.9401,1.9402,1.9403,1.9405,1.9381,1.9402,1.9402,1.9402,1.9402,1.9402,0,1.9394,1.9394,1.9398,1.9401,1.9404,1.9399,1.94,1.9404,1.9409,1.941,1.9413,1.9418,1.9422,1.942,1.9423,1.9427,1.9425,1.9428,1.9428,1.9428,1.9408,1.9406,1.943,1.943,1.943,1.943,1.943,1.943,1.9406,1.9414,1.9413,1.9422,1.9422,1.9427,1.9429,1.9431,1.9431,1.9438,1.9441,1.944,1.944,1.9443,1.9446,1.9446,1.9448,1.9452,1.9451,1.9432,1.943,1.9427,1.9425,1.9452,1.9452,1.9471,1.9471,1.9471]}]]